Meath Environmental Platform

Observations for Trim Patrick St

Time AQI Temp °C Hum % Pres Pa CO μg/m³ H₂S μg/m³ NO μg/m³ NO₂ μg/m³ O₃ μg/m³ SO₂ μg/m³ PM1 μg/m³ PM2.5 μg/m³ PM10 μg/m³
Saturday 8 August 2026
00:46 2 14.3 73 38,460 0.22 6.18 3.37 25.8 17.83 0 4.57 10.67 11.74
00:45 2 14.3 73 38,460 0.21 7.74 3.36 32.44 16.95 0 5.43 9.24 10.16
00:44 2 14.3 73 38,460 0.23 8.08 3.38 45.03 33.62 0 5.43 9.25 10.18
00:42 2 14.3 73 38,460 0.21 6.6 3.37 33.25 16.87 0 5.43 9.27 10.19
00:40 2 14.3 73 38,460 0.21 8.16 3.29 32.43 14.43 0 5.43 9.96 10.95
00:38 2 14.3 73 38,460 0.19 9.69 3.02 38.01 38.28 0 5.43 10.66 11.72
00:37 2 14.3 72 38,460 0.18 8.86 2.89 35.32 24.34 0 5.43 9.31 10.24
00:36 2 14.3 70 38,460 0.19 10.75 2.76 41.39 35.7 0 5.43 10.91 12
00:34 2 14.3 71 38,460 0.19 12 2.82 43.16 31.48 0 5.43 10.86 11.95
00:30 2 14.3 73 38,459 0.18 7.17 3.28 34.58 15.96 0 4.57 8.54 9.39
00:29 2 14.3 73 38,459 0.17 9.53 3.28 40.5 17.08 0 4.57 7.82 8.6
00:28 2 14.3 73 38,459 0.16 9.07 2.95 39.23 24.86 0 5.43 8.55 9.41
00:27 2 14.3 73 38,459 0.16 8.42 2.83 29.29 19.33 0 6.29 9.99 10.99
00:26 2 14.3 72 38,459 0.16 10.49 3.07 34.01 27.36 0 4.57 11.49 12.64
00:25 2 14.4 72 38,459 0.14 10.06 2.62 41.16 28.3 0 4.57 9.3 10.23
00:24 2 14.4 72 38,458 0.14 10.73 2.76 42.34 31.05 0 5.43 8.62 9.48
00:23 2 14.4 71 38,457 0.14 11.02 2.47 36.82 22.49 0 4.57 10.11 11.12
00:22 2 14.4 72 38,456 0.13 12.19 2.54 50.38 34.42 0 3.71 9.32 10.25
00:21 2 14.4 72 38,455 0.13 10.89 2.44 42.36 17.17 0 4.57 9.33 10.26
00:20 2 14.4 72 38,452 0.14 12.06 3.08 44.03 35.47 0 2.86 7.18 7.89